Inquirer Daily News

Weather

Get conditions and forecasts for any City, State, ZIP code or Country:  
Northeast Philadelphia, PA
on Wednesday, December 19, 2012

Wednesday
Previous Day Next Day
Daily Summary
 ActualAverage (KTTN)Record (KTTN)
Temperature
Mean Temperature °F 34°F  
Max Temperature 48°F 42°F 64°F (1895)
Min Temperature 37°F 26°F 7°F (1919)
Degree Days
Heating Degree Days 22 31  
Month to date heating degree days 531  
Since 1 July heating degree days 1507  
Cooling Degree Days 0 0  
Month to date cooling degree days 0  
Year to date cooling degree days 965  
Moisture
Dew Point 28°F   
Average Humidity 57    
Maximum Humidity 70    
Minimum Humidity 46    
Precipitation
Precipitation 0.00 in 0.11 in 1.07 in (1934)
Month to date precipitation 2.51  
Year to date precipitation 45.25  
Wind
Wind Speed 11 mph   
Max Wind Speed 20 mph   
Max Gust Speed 25 mph   
Visibility 10 miles   
Events     

Key: T is trace of precipitation, MM is missing value
Source: NWS Daily Summary
Time(EST)TemperatureDew PointHumidity Pressure Visibility Wind DirectionWind SpeedGust SpeedPrecipitationEvents Conditions
12:54 AM 41.0°F 27.0°F 57% 29.74 in 10.0 miles West 11.5 mph - N/A   Clear
1:54 AM 41.0°F 27.0°F 57% 29.77 in 10.0 miles WNW 11.5 mph 21.9 mph N/A   Clear
2:54 AM 41.0°F 28.0°F 60% 29.77 in 10.0 miles West 12.7 mph - N/A   Partly Cloudy
3:54 AM 41.0°F 27.0°F 57% 29.77 in 10.0 miles WNW 10.4 mph - N/A   Partly Cloudy
4:54 AM 39.0°F 27.0°F 62% 29.78 in 10.0 miles West 6.9 mph 16.1 mph N/A   Partly Cloudy
5:54 AM 39.0°F 28.9°F 67% 29.80 in 10.0 miles West 8.1 mph - N/A   Scattered Clouds
6:54 AM 37.9°F 28.9°F 70% 29.84 in 10.0 miles West 10.4 mph - N/A   Clear
7:54 AM 39.0°F 30.0°F 70% 29.86 in 10.0 miles West 11.5 mph - N/A   Clear
8:54 AM 42.1°F 30.9°F 65% 29.88 in 10.0 miles West 11.5 mph - N/A   Clear
9:54 AM 44.1°F 30.0°F 58% 29.88 in 10.0 miles WNW 12.7 mph 21.9 mph N/A   Clear
10:54 AM 46.0°F 28.9°F 51% 29.88 in 10.0 miles NW 12.7 mph - N/A   Clear
11:54 AM 46.9°F 30.0°F 52% 29.88 in 10.0 miles WNW 19.6 mph 25.3 mph N/A   Partly Cloudy
12:54 PM 48.0°F 28.9°F 48% 29.88 in 10.0 miles NW 18.4 mph 25.3 mph N/A   Clear
1:54 PM 48.9°F 30.0°F 48% 29.88 in 10.0 miles WNW 17.3 mph 23.0 mph N/A   Clear
2:54 PM 48.9°F 28.9°F 46% 29.93 in 10.0 miles NW 13.8 mph - N/A   Clear
3:54 PM 46.9°F 30.0°F 52% 29.96 in 10.0 miles WNW 16.1 mph 25.3 mph N/A   Scattered Clouds
4:54 PM 45.0°F 28.9°F 53% 30.00 in 10.0 miles WNW 10.4 mph - N/A   Scattered Clouds
5:54 PM 44.1°F 28.9°F 55% 30.05 in 10.0 miles NW 6.9 mph - N/A   Mostly Cloudy
6:54 PM 42.1°F 27.0°F 55% 30.08 in 10.0 miles NNW 9.2 mph - N/A   Clear
7:54 PM 41.0°F 26.1°F 55% 30.11 in 10.0 miles NNW 6.9 mph - N/A   Clear
8:54 PM 41.0°F 25.0°F 53% 30.13 in 10.0 miles WNW 4.6 mph - N/A   Clear
9:54 PM 39.9°F 26.1°F 58% 30.14 in 10.0 miles NW 9.2 mph - N/A   Clear
10:54 PM 37.9°F 26.1°F 62% 30.17 in 10.0 miles WNW 6.9 mph - N/A   Clear
11:54 PM 37.9°F 26.1°F 62% 30.17 in 10.0 miles NW 4.6 mph - N/A   Clear
Astronomy
Sunrise:07:17 AM (EST) Moon Rise:11:25 AM (EST)
Sunset:04:37 PM (EST) Moon Set:No Moon Set/
Moon Phase
Dec. 19 Dec. 20 Dec. 28 Jan. 04 Jan. 11

Copyright © 2014 The Weather Underground, Inc.